Theta_e
336 330 331 333 317 316 310 310 317 313 313 317 317 314 311 312 308 305 329 328 327 337 346 347 355 354 353 353 352 351 351 350 348 346 342 339 337 337 337 335 333 333 334 335 338 342 342 340 341
329 331 335 325 313 308 309 315 312 314 316 317 316 314 312 310 315 317 322 330 328 333 343 345 355 354 354 354 353 353 352 350 348 346 343 341 339 338 338 337 336 335 334 335 336 339 342 342 340
336 337 323 317 313 308 308 314 314 316 317 315 314 316 314 313 317 318 328 330 331 335 335 346 353 354 355 353 354 354 352 348 347 345 344 343 341 340 339 339 339 337 336 336 336 336 339 342 341
333 327 323 311 308 312 314 316 316 314 316 317 315 311 317 321 319 322 327 326 327 325 333 345 347 345 342 343 347 350 350 348 345 342 341 340 339 342 340 339 339 339 338 337 336 336 336 339 342
330 323 313 311 310 314 318 319 317 313 314 314 314 310 314 320 323 325 326 326 325 330 331 334 343 339 338 338 340 343 340 340 340 340 339 338 338 339 338 338 338 338 339 338 336 336 338 339 339
319 320 309 306 310 314 318 319 315 314 314 314 313 312 316 323 322 323 325 327 326 329 333 336 339 341 339 339 339 336 333 333 334 335 336 336 337 337 337 337 336 336 338 338 336 335 336 339 341
316 315 310 310 309 312 315 320 315 315 313 312 316 310 317 321 323 326 326 328 329 329 329 334 334 338 341 339 336 332 330 330 332 333 333 333 334 334 335 335 335 335 336 338 337 336 337 338 339
319 315 309 310 309 309 317 318 319 317 313 319 317 310 311 321 325 325 324 323 324 325 325 332 336 331 336 338 335 333 333 333 332 333 333 332 332 332 333 334 335 336 336 337 337 336 338 338 337
323 311 307 309 309 310 317 315 319 321 316 317 317 315 319 324 323 321 322 321 322 325 330 331 327 334 337 336 335 337 336 334 334 333 333 331 330 330 330 333 335 335 336 337 337 337 337 337 337
315 310 309 314 314 311 314 314 315 315 315 315 315 318 320 321 320 318 318 319 322 325 326 329 334 338 338 332 337 338 336 335 335 333 333 331 330 331 329 330 332 333 335 336 336 337 336 334 329
315 310 314 315 315 315 312 313 316 314 311 315 313 316 317 318 320 319 318 322 322 329 328 330 338 339 338 335 335 332 333 333 334 333 334 332 330 331 329 328 328 330 332 332 333 332 331 330 328
312 315 315 316 316 313 311 316 313 314 314 317 317 317 318 318 319 318 318 322 323 326 329 333 337 338 341 337 332 333 330 335 332 333 334 332 331 329 329 329 328 330 329 330 331 332 332 330 328
314 314 316 317 316 314 314 314 313 313 317 318 317 316 316 319 321 325 326 328 326 328 328 335 337 340 341 339 335 336 335 331 335 331 331 332 332 330 331 331 329 329 329 330 330 331 332 328 328
316 316 315 316 315 315 311 313 313 315 318 316 315 315 316 317 319 322 325 327 328 327 332 335 337 340 338 337 337 337 335 334 333 330 328 334 333 332 330 331 330 329 329 330 330 331 329 330 327
315 310 312 313 314 312 314 310 310 315 317 316 315 316 317 318 319 321 326 329 332 330 334 335 335 338 339 339 338 337 337 336 333 333 331 336 334 333 332 331 331 330 330 330 330 330 331 330 331
309 310 304 311 313 314 312 304 312 316 316 315 315 316 317 320 320 323 326 330 332 331 333 335 330 335 340 338 338 336 336 334 334 335 336 332 334 334 332 329 333 331 330 328 330 330 329 330 331
307 302 304 307 313 312 311 306 312 316 316 315 316 316 317 319 322 327 326 328 332 332 332 333 336 335 337 337 340 339 339 337 339 338 337 331 335 335 333 329 329 333 330 330 330 327 328 329 331
301 302 304 305 310 312 309 309 313 316 315 316 317 317 317 319 321 324 326 329 331 332 333 337 336 339 338 339 340 338 340 339 337 335 335 332 333 335 334 332 327 331 329 328 329 327 329 329 329
307 305 305 309 312 310 310 311 312 315 316 315 316 317 319 321 323 325 326 329 330 332 332 336 337 340 338 338 334 334 335 334 335 334 333 333 332 334 334 330 327 330 329 330 329 330 327 327 331
306 304 305 309 311 310 310 309 312 314 315 315 316 317 319 321 321 323 326 328 330 331 331 335 337 339 340 338 340 338 334 335 335 334 334 335 333 334 334 334 331 330 329 330 328 329 327 328 330
305 304 306 305 309 311 309 307 310 313 315 315 316 318 320 321 320 322 323 326 328 329 329 334 337 339 341 340 339 338 337 331 332 334 333 334 334 334 333 335 334 334 330 328 330 328 328 326 329
302 308 308 307 305 300 309 298 307 310 311 312 314 316 317 321 322 322 323 326 328 327 329 334 337 339 339 340 338 334 328 329 333 333 332 331 334 334 336 335 333 335 331 330 328 330 329 328 325
305 310 308 308 305 304 303 300 303 310 308 310 313 316 319 322 322 321 323 325 327 328 330 334 338 338 341 338 339 336 332 334 334 330 331 332 334 334 335 336 334 335 333 331 331 330 329 331 327
311 308 308 307 305 298 302 301 301 305 308 310 311 315 320 321 322 323 324 327 326 326 329 334 336 337 340 336 337 336 333 330 330 328 330 332 333 334 332 334 335 334 334 333 332 331 332 331 331
308 307 298 295 295 294 303 300 304 310 311 310 311 314 320 321 321 321 322 323 324 324 328 330 334 333 337 336 336 334 334 331 330 330 327 328 331 332 333 333 334 335 333 334 334 332 332 332 330
307 307 299 291 293 295 304 298 303 311 313 313 313 319 321 321 321 321 322 323 321 324 327 329 331 330 334 334 335 335 337 332 332 331 332 331 329 332 335 334 333 331 333 335 334 332 332 332 330
306 302 308 301 302 297 300 305 311 311 310 311 314 318 321 321 321 321 323 323 322 324 327 330 331 331 333 333 336 336 336 333 331 332 334 330 331 333 333 334 333 332 332 334 333 330 331 331 331
309 311 301 301 293 291 297 300 301 307 307 311 315 318 320 321 320 321 322 324 323 325 328 331 331 330 331 333 334 333 334 335 334 332 328 329 329 331 332 331 332 332 332 333 332 332 334 332 330
306 304 305 305 301 294 293 299 315 310 311 314 317 319 320 319 319 320 321 323 322 324 324 329 329 328 330 332 332 334 334 334 334 331 333 331 327 331 331 332 331 332 331 333 331 330 331 330 328
309 306 307 299 299 301 301 300 314 315 313 315 317 319 319 320 320 320 321 322 320 322 324 327 329 325 328 330 330 332 334 335 336 332 334 333 327 328 330 330 330 330 330 331 330 330 331 328 326
Wind_Speed
7 11 9 11 8 9 17 9 7 8 15 13 8 7 9 8 12 5 5 8 4 14 12 15 16 15 13 12 12 12 11 10 10 10 10 10 10 10 10 9 8 7 8 9 10 10 11 10 10
13 13 10 7 11 15 4 13 5 12 10 9 2 3 3 11 13 9 11 5 6 8 9 12 15 14 13 12 12 11 10 9 9 10 11 11 12 13 12 11 10 9 10 11 11 11 10 11 10
13 17 9 8 14 16 9 1 9 12 4 2 4 3 3 7 9 5 9 5 4 2 8 14 17 13 10 8 8 9 9 9 10 9 9 11 13 13 13 13 13 13 11 12 13 12 12 10 11
8 9 8 10 17 15 11 8 8 8 6 8 2 4 8 6 9 7 9 5 2 4 15 11 10 7 3 2 5 7 8 9 9 9 10 11 13 13 13 14 14 16 15 13 15 13 11 10 11
10 8 13 19 21 13 13 11 8 8 8 7 10 2 8 9 11 11 8 2 1 2 8 11 10 8 5 1 2 3 4 5 7 9 11 12 13 14 14 14 16 16 17 16 15 14 11 10 8
10 11 12 16 18 6 12 6 6 10 9 3 5 2 7 13 10 8 8 7 3 6 6 4 9 9 8 8 8 6 2 4 7 9 11 12 13 14 15 16 17 18 17 18 16 15 12 10 9
14 13 17 20 21 20 2 6 6 10 7 7 10 4 6 14 10 7 8 7 3 4 6 6 4 12 12 11 9 8 6 5 7 9 11 13 15 17 18 19 19 19 18 19 18 15 12 10 9
12 13 21 19 17 18 8 3 10 11 4 4 3 4 6 11 11 7 7 10 11 11 7 2 5 3 4 2 13 12 10 8 7 10 10 11 14 17 17 18 17 18 17 19 18 16 14 11 9
18 15 15 21 21 14 14 12 10 6 4 9 5 4 7 11 9 8 6 8 7 2 3 6 5 5 5 6 5 13 14 10 11 9 10 8 6 7 11 13 18 17 19 18 18 16 13 11 10
17 14 21 21 19 15 16 14 17 16 8 7 12 10 9 11 10 9 9 9 8 4 7 7 6 4 4 6 5 3 3 1 1 5 3 4 6 6 8 12 11 10 12 17 17 14 14 12 6
19 19 19 21 20 13 19 14 18 10 9 8 7 1 13 11 9 9 9 4 7 3 3 6 2 3 2 5 4 3 2 1 1 4 5 4 6 6 4 3 5 6 10 6 10 7 7 8 7
24 25 23 19 18 18 19 14 15 10 9 9 2 1 14 13 8 9 7 3 6 6 3 4 4 2 2 3 5 5 3 1 3 4 5 4 4 6 3 3 6 3 5 8 8 5 7 7 9
26 24 22 18 16 24 20 17 14 14 9 6 4 4 8 7 9 5 4 2 5 2 5 1 4 1 2 2 4 4 3 4 3 7 7 7 3 4 3 4 5 3 4 6 7 7 5 7 8
22 24 18 20 25 18 19 15 12 15 10 8 8 10 8 9 10 9 7 3 3 5 2 1 2 1 4 3 6 3 4 5 6 7 7 5 4 3 4 4 4 4 4 6 8 8 8 7 7
23 24 22 23 16 18 19 18 16 17 12 16 11 8 12 8 11 10 9 7 3 2 2 1 5 3 4 4 5 4 4 5 5 6 3 5 5 5 5 5 4 4 4 8 7 7 7 5 3
22 26 21 21 23 23 18 16 13 17 14 11 13 13 12 12 9 7 8 8 6 2 1 1 4 4 4 5 5 4 4 3 4 5 5 6 3 6 5 4 3 4 4 3 4 5 4 4 5
19 17 25 22 21 20 19 18 16 16 15 12 10 10 10 10 10 7 9 9 6 4 2 1 2 6 5 5 4 4 2 3 2 3 4 5 6 5 4 2 4 5 5 4 4 2 3 3 3
20 23 21 21 20 11 15 16 17 17 15 15 12 11 11 9 13 12 9 9 7 4 3 2 3 3 3 4 4 3 0 1 3 3 4 4 5 5 4 4 5 5 6 7 4 10 11 5 4
25 25 22 20 20 12 9 22 17 11 15 18 13 10 10 9 12 12 11 9 8 5 4 4 1 1 3 2 3 3 3 2 2 4 5 6 5 5 3 3 4 7 6 6 6 5 9 4 5
28 25 22 20 14 11 13 13 12 16 19 18 13 10 9 10 14 14 12 9 8 7 5 3 2 2 3 3 2 2 3 2 1 3 3 3 5 4 4 3 6 6 6 6 9 9 5 4 7
26 24 20 21 15 16 8 14 18 18 17 12 8 7 2 13 14 15 14 11 9 6 6 5 3 1 2 4 3 3 2 1 0 3 3 4 4 3 1 3 4 4 4 6 8 9 10 7 5
24 25 23 19 16 12 14 13 13 15 17 7 7 11 12 15 13 15 14 12 10 8 6 5 4 1 2 5 4 5 3 2 1 1 3 3 3 4 1 3 5 5 3 4 6 8 8 8 9
23 25 23 18 15 15 15 13 13 15 16 9 5 1 11 14 14 15 14 13 11 8 7 5 5 2 1 5 4 3 4 2 1 3 3 3 3 1 2 3 4 5 5 6 6 9 8 4 8
25 23 20 13 13 14 16 15 13 15 3 7 2 6 12 13 13 14 13 13 9 8 8 6 5 2 2 4 3 5 3 3 3 3 3 3 3 3 3 3 4 5 6 7 6 9 7 6 6
25 19 11 12 13 11 16 17 15 13 6 2 5 3 10 12 14 14 14 12 10 9 8 6 6 4 2 5 4 7 5 5 5 4 4 4 4 3 5 4 3 4 6 7 8 8 6 8 8
25 17 13 16 12 16 11 15 7 2 7 6 2 7 8 10 13 13 13 12 11 10 9 8 6 6 3 5 4 8 5 4 4 3 2 4 3 4 5 6 5 5 8 7 8 7 7 6 8
22 19 20 18 15 13 4 13 10 12 9 7 8 7 10 10 13 14 13 11 11 10 8 5 6 5 3 6 3 4 6 6 5 4 3 3 4 5 6 5 7 7 8 9 9 7 8 10 8
23 19 18 12 17 16 14 14 6 13 9 10 11 9 10 13 14 13 12 11 9 10 8 6 5 5 4 5 4 4 5 4 4 5 3 6 6 5 8 6 9 6 7 8 9 8 10 12 8
19 20 20 13 15 13 12 11 5 15 10 9 11 13 12 15 14 13 12 11 10 10 10 6 6 6 6 4 5 2 5 4 3 6 5 7 5 7 6 6 8 8 8 7 8 10 11 12 11
23 23 18 11 17 12 12 6 9 7 8 8 14 15 15 14 14 13 13 12 11 10 11 9 6 7 7 6 6 3 4 5 3 6 5 7 7 6 6 6 6 8 8 8 9 9 8 11 12
Wind_Direction
199 216 224 249 254 232 266 24 241 343 61 52 28 9 349 332 35 52 117 115 89 94 130 161 164 176 192 203 212 217 222 224 232 235 234 237 249 269 283 292 294 286 278 276 277 273 262 261 272
213 216 236 277 246 279 290 285 356 22 36 41 353 264 353 74 59 111 133 109 109 127 143 136 171 185 196 207 216 223 227 230 240 245 240 240 242 248 264 277 281 281 277 266 264 272 269 265 263
269 263 272 237 252 262 298 263 346 354 82 112 287 150 61 89 82 75 106 113 133 141 174 145 167 179 195 215 231 237 237 236 239 244 246 248 249 252 259 271 269 268 266 265 257 253 263 273 257
227 222 243 253 262 284 343 340 7 359 324 153 156 16 117 103 126 106 128 177 203 240 87 113 121 123 128 257 269 275 263 261 259 263 266 264 261 263 262 261 263 265 257 258 255 255 259 263 273
246 265 252 261 270 314 265 320 16 317 310 339 120 242 102 128 118 127 136 180 222 343 86 118 125 121 121 151 284 348 3 332 309 284 274 273 272 276 269 265 261 256 254 247 247 245 255 263 270
232 233 265 271 297 188 298 8 3 310 305 321 210 127 100 138 142 145 137 163 67 48 78 134 141 143 167 179 182 188 219 283 291 286 283 279 274 273 271 269 264 261 250 250 236 237 239 256 271
251 268 269 283 297 299 208 190 281 290 326 8 15 14 124 157 146 141 132 108 129 164 200 178 169 180 192 192 193 187 191 232 271 280 280 276 271 268 268 264 258 257 253 240 236 225 230 242 266
241 265 274 277 280 295 356 172 264 308 251 15 63 344 41 111 126 147 169 173 195 193 199 145 180 26 355 151 190 190 200 211 239 258 277 281 282 276 269 263 260 251 252 237 229 223 226 234 245
245 255 265 276 289 312 319 330 331 285 240 277 151 169 112 127 152 186 193 221 234 196 132 80 41 30 352 311 267 190 219 209 226 250 253 240 250 258 293 244 244 248 236 232 219 218 223 227 234
240 250 265 275 293 318 326 311 308 298 280 262 176 162 154 162 178 211 204 216 222 62 44 74 62 36 335 294 297 290 352 195 339 322 327 296 281 285 267 278 287 267 250 224 221 213 221 223 225
241 253 253 277 291 305 298 301 276 294 292 307 10 31 162 185 201 212 242 240 57 46 52 57 69 81 331 303 317 299 120 140 359 259 242 254 265 267 254 256 268 207 218 216 214 194 214 211 213
253 252 253 262 288 285 275 279 285 297 289 293 53 188 173 193 208 205 224 231 166 75 56 53 70 57 311 353 330 316 290 63 263 244 232 226 249 264 257 252 257 248 215 195 195 197 203 215 217
257 261 254 272 276 265 264 267 281 280 308 317 263 214 233 199 190 178 217 125 59 53 53 346 52 41 307 211 272 301 301 266 290 259 232 212 209 278 280 264 272 235 232 179 190 197 206 222 222
254 259 269 258 252 270 266 263 262 259 264 247 245 238 222 228 196 208 172 155 160 107 249 47 320 214 247 229 244 254 263 273 252 266 247 165 194 248 269 263 261 248 228 166 189 188 205 224 211
262 266 264 258 266 260 274 258 240 274 251 253 232 225 240 242 228 199 156 157 182 151 170 260 245 199 269 227 241 220 247 252 264 267 211 192 202 216 238 254 249 229 207 186 207 186 209 212 160
258 264 260 258 252 248 236 262 263 270 238 237 239 248 232 220 204 179 151 142 143 215 223 161 302 332 29 342 317 299 280 267 272 298 316 320 293 211 231 247 240 194 185 186 205 196 193 187 168
247 250 252 257 250 261 208 238 242 271 279 240 258 246 251 206 158 155 156 140 152 183 227 272 348 280 35 287 310 277 297 298 293 285 282 291 280 269 217 152 271 191 180 189 193 135 113 180 157
234 231 236 251 261 197 233 246 240 248 257 252 261 251 214 225 166 159 156 154 153 172 182 220 251 341 346 315 283 280 165 287 274 295 266 262 275 266 234 184 233 206 186 175 191 160 181 176 165
244 249 241 243 229 271 223 236 248 289 287 287 274 260 202 193 152 150 155 159 147 168 198 218 310 17 300 1 337 295 76 54 360 303 314 263 247 254 245 248 163 190 179 173 170 134 156 155 120
242 250 262 273 281 260 246 259 289 281 268 266 273 275 213 150 143 155 150 162 157 186 197 188 210 57 348 357 351 348 350 68 21 314 330 327 219 260 208 209 169 179 174 157 162 147 139 130 152
232 242 250 261 276 270 258 262 253 271 258 227 233 243 188 151 159 154 157 168 169 189 171 195 137 229 16 58 291 357 334 5 327 334 6 338 187 168 220 208 176 156 153 163 155 157 151 141 134
233 233 241 259 266 266 291 294 296 300 279 237 265 219 189 150 156 155 160 168 177 186 169 144 145 261 102 45 38 20 352 349 19 238 22 3 16 48 204 204 183 147 139 154 162 154 148 134 141
228 235 231 233 250 258 264 268 280 279 281 215 212 246 129 143 159 158 163 167 177 169 152 163 149 179 179 117 15 80 33 16 346 5 49 31 39 31 194 187 168 160 158 172 152 153 158 133 147
229 235 243 242 255 247 243 253 267 268 342 108 132 129 144 147 151 151 159 159 169 156 155 160 166 166 272 78 16 29 41 40 75 49 70 25 50 30 46 134 162 178 158 165 152 148 144 134 137
224 225 220 226 236 254 254 250 254 260 300 107 58 18 129 142 145 150 160 163 159 171 152 170 165 167 221 81 47 52 61 87 64 42 40 39 41 51 85 78 121 152 152 146 139 139 134 132 145
207 208 233 222 225 244 317 242 266 256 140 113 137 71 114 141 142 155 164 163 162 165 156 209 163 142 191 90 62 76 80 86 92 69 62 61 54 69 95 85 87 122 139 119 136 138 135 140 128
199 205 221 249 256 263 209 237 264 157 159 195 158 129 135 148 147 159 165 162 164 157 158 192 173 152 156 111 110 92 87 82 82 55 41 35 86 65 78 77 84 106 126 118 118 136 127 112 107
222 201 208 218 239 259 277 259 253 148 189 167 135 140 143 145 156 164 163 159 163 154 155 176 158 152 146 133 164 110 122 110 132 131 99 77 63 65 89 80 82 86 101 104 109 102 99 104 92
198 226 200 219 227 229 248 269 183 149 192 134 149 137 157 154 167 164 163 157 166 158 162 175 188 157 136 150 103 135 121 109 124 97 102 115 100 87 82 82 80 93 101 97 104 109 117 109 111
200 214 205 208 219 240 252 244 97 106 139 146 126 146 165 166 169 167 164 159 172 169 160 173 194 158 157 155 134 136 111 98 81 97 98 123 118 107 103 90 103 99 104 123 122 128 123 125 127